Hourly Data Report for September 26, 2017

All times are specified in Local Standard Time (LST). Add 1 hour to adjust for Daylight Saving Time where and when it is observed.

POINT LEPREAU CS
NEW BRUNSWICK

45°04'23.040" N
66°26'57.090" W
6.00 m
8104201
71699
WPE

Download Data

Hourly Data (September 2017)
Hourly Data Report for September 26, 2017
Temp Definition
°C
Dew Point Temp Definition
°C
Rel Hum Definition
%
Wind Dir Definition
10's deg

Wind Spd Definition
km/h
Visibility Definition
km
Stn Press Definition
kPa
Hmdx Definition


Wind Chill Definition


Weather Definition


TIME
00:00 14.1 LegendMM 100 25 6   101.59     LegendNANA
01:00 14.1 LegendMM 100 22 4   101.56     LegendNANA
02:00 13.6 LegendMM 100 27 4   101.57     LegendNANA
03:00 14.0 LegendMM 100 23 9   101.56     LegendNANA
04:00 13.9 LegendMM 100 23 10   101.55     LegendNANA
05:00 13.4 LegendMM 100 29 7   101.56     LegendNANA
06:00 13.0 LegendMM 100 23 5   101.53     LegendNANA
07:00 13.7 LegendMM 100 23 6   101.53     LegendNANA
08:00 15.2 LegendMM 100 25 5   101.55     LegendNANA
09:00 16.1 14.8 93 24 12   101.53     LegendNANA
10:00 16.1 14.6 91 26 13   101.53     LegendNANA
11:00 18.7 15.8 83 24 10   101.50     LegendNANA
12:00 20.0 16.6 80 22 11   101.46 25   LegendNANA
13:00 18.8 15.9 83 21 9   101.42     LegendNANA
14:00 20.1 16.4 79 26 8   101.38 25   LegendNANA
15:00 18.6 16.1 85 19 11   101.41     LegendNANA
16:00 18.7 16.9 89 19 9   101.37     LegendNANA
17:00 17.2 16.1 93 19 4   101.37     LegendNANA
18:00 16.0 15.1 94 22 3   101.35     LegendNANA
19:00 16.3 15.8 97 24 5   101.35     LegendNANA
20:00 15.3 LegendMM 100 25 8   101.40     LegendNANA
21:00 15.0 LegendMM 100 24 8   101.37     LegendNANA
22:00 15.1 LegendMM 100 28 3   101.43     LegendNANA
23:00 14.1 LegendMM 100 11 9   101.48     LegendNANA

Notes on Data Quality.

Legend

  • E = Estimated
  • M = Missing
  • NA = Not Available
  • ‡ = Partner data that is not subject to review by the National Climate Archives
Date modified: